Location: Unspecified
(0.0000°N, 0.0000°E)
Time: 00:28:08
(UTC+00:00)

Transit 2A Rocket - All Passes

Search period start: 13 December 2018 00:00
Search period end: 23 December 2018 00:00
Orbit: 588 x 916 km, 66.7° (Epoch: 12 December)

Date Brightness Start Highest point End Pass type
(mag) Time Alt. Az. Time Alt. Az. Time Alt. Az.
13 Dec - 06:44:50 10° S 06:48:43 34° ESE 06:52:39 10° NE daylight
13 Dec - 19:12:50 10° NNW 19:18:56 74° WSW 19:24:54 10° SSE visible
14 Dec - 06:03:57 10° SE 06:06:19 14° ESE 06:08:41 10° ENE daylight
14 Dec - 07:45:20 10° WSW 07:48:33 21° WNW 07:51:49 10° NNW daylight
14 Dec - 18:30:32 10° N 18:36:31 57° ENE 18:42:22 10° SSE visible
14 Dec - 20:16:50 10° W 20:18:53 12° WSW 20:20:55 10° SW visible
15 Dec - 07:01:59 10° SW 07:06:07 49° WNW 07:10:20 10° N daylight
15 Dec - 17:48:51 10° N 17:54:03 29° ENE 17:59:10 10° SE daylight
15 Dec - 19:31:38 10° WNW 19:36:26 24° WSW 19:41:08 10° SSW visible
16 Dec - 06:19:30 10° S 06:23:42 64° ESE 06:28:02 10° NNE daylight
16 Dec - 17:08:17 10° NE 17:11:34 15° ENE 17:14:49 10° ESE daylight
16 Dec - 18:48:11 10° NW 18:54:00 47° WSW 18:59:43 10° S visible
17 Dec - 05:37:46 10° SSE 05:41:19 25° ESE 05:44:55 10° NE daylight
17 Dec - 07:22:02 10° W 07:23:36 12° WNW 07:25:10 10° NW daylight
17 Dec - 18:05:29 10° NNW 18:11:36 89° ENE 18:17:34 10° SSE daylight
18 Dec - 04:57:57 10° ESE 04:58:54 11° ESE 04:59:52 10° E visible
18 Dec - 06:37:29 10° SW 06:41:08 27° WNW 06:44:53 10° N daylight
18 Dec - 17:23:21 10° N 17:29:09 46° ENE 17:34:50 10° SE daylight
18 Dec - 19:08:10 10° WNW 19:11:31 15° WSW 19:14:49 10° SW visible
19 Dec - 05:54:28 10° SSW 05:58:42 69° WNW 06:03:05 10° NNE daylight
19 Dec - 16:41:57 10° NNE 16:46:41 23° ENE 16:51:21 10° ESE daylight
19 Dec - 18:23:51 10° NW 18:29:05 30° WSW 18:34:11 10° S visible
20 Dec - 05:12:12 10° S 05:16:18 46° ESE 05:20:31 10° NE visible
20 Dec - 16:02:21 10° NE 16:04:11 11° ENE 16:06:00 10° E daylight
20 Dec - 17:40:41 10° NNW 17:46:40 59° WSW 17:52:30 10° S daylight
21 Dec - 04:30:50 10° SSE 04:33:55 19° ESE 04:37:02 10° ENE visible
21 Dec - 06:13:32 10° WSW 06:16:10 16° WNW 06:18:52 10° NNW daylight
21 Dec - 16:58:10 10° NNW 17:04:15 72° ENE 17:10:09 10° SSE daylight
22 Dec - 05:29:45 10° SW 05:33:43 37° WNW 05:37:48 10° N visible
22 Dec - 16:16:16 10° N 16:21:48 36° ENE 16:27:12 10° SE daylight
22 Dec - 17:59:58 10° WNW 18:04:09 19° WSW 18:08:15 10° SSW daylight
